KJ5JYX Weather Reports


time (UTC)temp
F
wind
direction
speed
knots
gust
knots
rain 1hr
in
rain 24hr
in
rain mn
in
humidity
%
barometer
mb
20260510011727 81 159 0.0 0.0 0.00 0.05 0.05 73 1009.7
20260510011222 81 159 0.0 0.0 0.00 0.05 0.05 74 1009.5
20260510010719 82 159 0.0 0.0 0.00 0.05 0.05 73 1009.5
20260510010215 82 159 0.0 0.0 0.00 0.05 0.05 71 1009.5
20260510005712 83 159 0.0 0.0 0.00 0.05 0.05 70 1009.4
20260510005208 84 159 0.0 0.0 0.00 0.05 0.05 72 1009.4
20260510004707 84 159 0.0 0.0 0.00 0.05 0.05 67 1009.6
20260510004205 84 159 0.0 0.0 0.00 0.05 0.05 70 1009.4
20260510003702 85 159 0.0 0.0 0.00 0.05 0.05 69 1009.3
20260510003158 85 159 0.0 0.0 0.00 0.05 0.05 68 1009.4
20260510002657 86 159 0.0 0.0 0.00 0.05 0.05 67 1009.3
20260510002154 86 159 0.0 0.0 0.00 0.05 0.05 65 1009.3
20260510001651 86 159 0.0 0.0 0.00 0.05 0.05 63 1009.2
20260510001150 87 159 0.0 0.0 0.00 0.05 0.05 60 1009.3
20260510000650 87 159 0.0 0.0 0.00 0.05 0.05 60 1009.3
20260510000148 87 159 0.0 0.0 0.00 0.05 0.05 59 1009.2
20260509235644 87 159 0.0 0.0 0.00 0.05 0.05 60 1009.2
20260509235141 87 158 0.0 0.0 0.00 0.05 0.05 63 1009.2
20260509234637 88 159 0.0 0.0 0.00 0.05 0.05 64 1009.2
20260509234134 88 150 0.9 0.9 0.00 0.05 0.05 55 1009.3
20260509233632 88 164 0.0 0.0 0.00 0.05 0.05 56 1009.0
20260509233130 88 165 0.0 0.0 0.00 0.05 0.05 58 1009.2
20260509232625 88 179 0.0 0.0 0.00 0.05 0.05 58 1009.0
20260509232123 88 179 0.0 0.0 0.00 0.05 0.05 54 1008.9
20260509231619 88 213 0.0 0.9 0.00 0.05 0.05 55 1009.3
20260509231117 88 155 0.9 0.9 0.00 0.05 0.05 59 1009.2
20260509230614 89 159 0.9 0.9 0.00 0.05 0.05 60 1009.3
20260509230111 89 122 0.9 0.9 0.00 0.05 0.05 55 1009.3
20260509225606 89 150 0.9 0.9 0.00 0.05 0.05 57 1009.3
20260509225102 89 178 0.0 0.0 0.00 0.05 0.05 54 1009.2
20260509224557 89 181 0.9 0.9 0.00 0.05 0.05 56 1009.2
20260509224055 89 153 0.0 0.0 0.00 0.05 0.05 53 1009.2
20260509223551 89 159 0.0 0.0 0.00 0.05 0.05 57 1009.3
20260509223049 89 160 0.0 0.0 0.00 0.05 0.05 59 1009.3
20260509222545 89 160 0.9 0.9 0.00 0.05 0.05 59 1009.3
20260509222041 89 156 0.0 0.9 0.00 0.05 0.05 60 1009.0
20260509221537 89 166 0.0 0.0 0.00 0.05 0.05 52 1009.3
20260509221033 90 154 0.9 1.7 0.00 0.05 0.05 53 1009.4
20260509220529 90 150 0.0 0.0 0.00 0.05 0.05 55 1009.4
20260509220026 91 91 0.9 1.7 0.00 0.05 0.05 54 1009.5
20260509215521 91 166 0.9 0.9 0.00 0.05 0.05 52 1009.3
20260509215018 91 324 1.7 2.6 0.00 0.05 0.05 52 1009.3
20260509214515 91 148 0.9 1.7 0.00 0.05 0.05 52 1009.4
20260509214012 91 195 0.9 1.7 0.00 0.05 0.05 53 1009.6
20260509213508 91 190 0.9 0.9 0.00 0.05 0.05 55 1009.5
20260509213006 92 171 0.0 0.9 0.00 0.05 0.05 54 1009.6
20260509212502 93 170 0.9 0.9 0.00 0.05 0.05 58 1009.6
20260509211959 92 160 0.9 0.9 0.00 0.05 0.05 53 1009.6
20260509211454 92 193 0.0 0.0 0.00 0.05 0.05 52 1009.6
20260509210951 91 182 0.9 0.9 0.00 0.05 0.05 53 1009.9
20260509210449 91 168 0.0 0.0 0.00 0.05 0.05 61 1009.9
20260509205944 91 141 0.9 0.9 0.00 0.05 0.05 55 1010.1
20260509205439 92 227 0.9 1.7 0.00 0.05 0.05 55 1010.1
20260509204935 91 171 0.0 0.0 0.00 0.05 0.05 56 1010.3
20260509204431 91 196 0.9 0.9 0.00 0.05 0.05 55 1010.3
20260509203928 90 224 1.7 1.7 0.00 0.05 0.05 56 1010.4
20260509203424 90 138 0.0 0.9 0.00 0.05 0.05 56 1010.4
20260509202922 91 160 0.9 0.9 0.00 0.05 0.05 54 1010.4
20260509202417 91 322 1.7 1.7 0.00 0.05 0.05 58 1010.4
20260509201913 90 75 0.9 1.7 0.00 0.05 0.05 55 1010.5
20260509201408 90 212 0.9 1.7 0.00 0.05 0.05 58 1010.6
20260509200905 91 199 0.9 0.9 0.00 0.05 0.05 55 1010.6
20260509200405 91 179 0.9 0.9 0.00 0.05 0.05 54 1010.8
20260509195902 92 157 0.9 0.9 0.00 0.05 0.05 55 1010.7
20260509195403 91 208 0.9 0.9 0.00 0.05 0.05 56 1010.6
20260509194902 89 120 1.7 1.7 0.00 0.05 0.05 57 1010.7
20260509194359 89 140 0.0 0.0 0.00 0.05 0.05 58 1011.1
20260509193855 89 182 0.9 0.9 0.00 0.05 0.05 56 1011.0
20260509193355 90 197 0.9 0.9 0.00 0.05 0.05 59 1010.9
20260509192852 89 299 0.9 1.7 0.00 0.05 0.05 58 1011.0
20260509192348 90 216 1.7 1.7 0.00 0.05 0.05 61 1011.0
20260509191843 89 220 0.9 0.9 0.00 0.05 0.05 57 1010.9
20260509191339 90 238 0.9 1.7 0.00 0.05 0.05 59 1011.1
20260509190835 90 191 0.9 0.9 0.00 0.05 0.05 61 1011.2
20260509190332 89 8 1.7 1.7 0.00 0.05 0.05 59 1011.4
20260509185830 90 191 0.9 0.9 0.00 0.05 0.05 60 1011.5
20260509185326 91 168 0.0 0.0 0.00 0.05 0.05 58 1011.5
20260509184824 90 193 0.9 0.9 0.00 0.05 0.05 62 1011.6
20260509184321 89 139 0.9 1.7 0.00 0.05 0.05 58 1011.8
20260509183817 89 159 0.0 0.9 0.00 0.05 0.05 62 1011.9
20260509183312 88 158 1.7 1.7 0.00 0.05 0.05 64 1012.1
20260509182808 87 158 1.7 1.7 0.00 0.05 0.05 64 1012.2
20260509182307 86 186 0.9 0.9 0.00 0.05 0.05 66 1012.0
20260509181803 85 143 0.9 0.9 0.00 0.05 0.05 66 1012.1
20260509181300 86 169 0.0 0.0 0.00 0.05 0.05 68 1012.1
20260509180758 87 142 0.0 0.9 0.00 0.05 0.05 65 1012.0
20260509180253 87 307 2.6 2.6 0.00 0.05 0.05 65 1012.2
20260509175750 86 172 0.0 0.0 0.00 0.05 0.05 62 1012.1
20260509175246 86 189 0.9 0.9 0.00 0.05 0.05 64 1012.3
20260509174743 88 151 0.0 0.9 0.00 0.05 0.05 59 1012.2
20260509174238 89 156 1.7 2.6 0.00 0.05 0.05 62 1012.3
20260509173734 87 189 0.0 0.0 0.00 0.05 0.05 60 1012.4
20260509173230 87 182 0.9 0.9 0.00 0.05 0.05 68 1012.5
20260509172726 87 134 0.9 0.9 0.00 0.05 0.05 63 1012.5
20260509172223 86 257 0.9 0.9 0.00 0.05 0.05 65 1012.7
20260509171718 87 187 0.0 0.0 0.00 0.05 0.05 64 1012.7
20260509171215 86 198 0.9 0.9 0.00 0.05 0.05 69 1012.6
20260509170712 85 157 0.9 0.9 0.00 0.05 0.05 69 1012.6
20260509170208 86 180 0.0 0.9 0.00 0.05 0.05 67 1012.5
20260509165706 86 182 0.0 0.9 0.00 0.05 0.05 68 1012.7
20260509165201 85 176 0.9 0.9 0.00 0.05 0.05 72 1012.7
20260509164658 86 229 0.9 0.9 0.00 0.05 0.05 68 1012.7
20260509164154 86 174 0.9 1.7 0.00 0.05 0.05 70 1012.7
20260509163651 85 164 0.9 0.9 0.00 0.05 0.05 73 1012.7
20260509163147 85 181 0.9 0.9 0.00 0.05 0.05 70 1012.8
20260509162645 84 208 0.9 0.9 0.00 0.05 0.05 73 1013.0
20260509162140 84 306 1.7 1.7 0.00 0.05 0.05 71 1013.0
20260509161637 84 169 0.9 0.9 0.00 0.05 0.05 74 1013.0
20260509161132 83 176 0.0 0.0 0.00 0.05 0.05 72 1012.8
20260509160628 83 197 0.9 1.7 0.00 0.05 0.05 73 1012.7
20260509160123 83 181 0.9 0.9 0.00 0.05 0.05 74 1012.5
20260509155620 82 193 0.9 0.9 0.00 0.05 0.05 73 1012.4
20260509155116 82 175 0.0 0.0 0.00 0.05 0.05 77 1012.3
20260509154612 82 174 0.9 0.9 0.00 0.05 0.05 77 1012.3
20260509154109 81 253 2.6 2.6 0.00 0.05 0.05 76 1012.2
20260509153606 80 208 0.0 0.9 0.00 0.05 0.05 78 1012.1
20260509153103 80 136 0.9 1.7 0.00 0.05 0.05 80 1012.3
20260509152559 79 190 0.9 0.9 0.00 0.05 0.05 80 1012.3
20260509152057 80 193 0.9 1.7 0.00 0.05 0.05 82 1012.2
20260509151552 79 199 0.9 0.9 0.00 0.05 0.05 84 1012.5
20260509151050 78 174 0.9 1.7 0.00 0.05 0.05 85 1012.5
20260509150548 77 130 0.9 0.9 0.00 0.05 0.05 88 1012.6
20260509150046 77 192 0.9 1.7 0.00 0.05 0.05 88 1012.5
20260509145541 76 170 0.0 0.0 0.00 0.05 0.05 88 1012.4
20260509145037 75 180 0.0 0.9 0.00 0.05 0.05 89 1012.3
20260509144534 75 176 0.0 0.0 0.00 0.05 0.05 91 1012.2
20260509144031 73 179 0.9 0.9 0.00 0.05 0.05 95 1012.3
20260509143528 73 183 0.0 0.0 0.00 0.05 0.05 97 1012.0
20260509143026 73 182 0.0 0.9 0.00 0.05 0.05 99 1012.2
20260509142521 72 173 0.9 0.9 0.00 0.05 0.05 99 1012.2
20260509142017 72 186 0.0 0.0 0.00 0.05 0.05 99 1012.2
20260509141514 71 184 0.9 0.9 0.00 0.05 0.05 99 1012.1
20260509141010 71 174 0.0 0.0 0.00 0.05 0.05 99 1012.3
20260509140507 71 185 0.0 0.0 0.00 0.05 0.05 99 1012.0
20260509140006 71 171 0.0 0.0 0.00 0.05 0.05 99 1012.0
20260509135502 71 151 0.0 0.9 0.00 0.05 0.05 99 1012.0
20260509134959 71 196 0.9 0.9 0.00 0.05 0.05 99 1012.1
20260509134457 71 182 0.0 0.9 0.00 0.05 0.05 99 1011.6
20260509133954 71 184 0.0 0.9 0.00 0.05 0.05 99 1011.9
20260509133451 71 171 0.0 0.9 0.00 0.05 0.05 99 1011.5
20260509132948 70 156 0.0 0.0 0.00 0.05 0.05 99 1011.4
20260509132447 70 234 0.9 1.7 0.00 0.05 0.05 99 1011.1
20260509131943 70 177 0.0 0.0 0.00 0.05 0.05 99 1010.9
20260509131441 70 198 0.0 0.0 0.00 0.05 0.05 99 1011.2
20260509130937 69 172 0.0 0.0 0.00 0.05 0.05 99 1011.2
20260509130432 69 168 0.0 0.9 0.00 0.05 0.05 99 1011.3
20260509125930 69 181 0.9 1.7 0.00 0.05 0.05 99 1011.1
20260509125426 69 180 0.0 0.0 0.00 0.05 0.05 99 1011.2
20260509124922 69 182 0.0 0.9 0.00 0.05 0.05 99 1011.3
20260509124420 69 191 0.9 0.9 0.00 0.05 0.05 99 1011.2
20260509123917 69 175 0.0 0.0 0.00 0.05 0.05 99 1011.8
20260509123414 68 177 0.0 0.0 0.00 0.05 0.05 99 1011.9
20260509122910 68 185 0.0 0.0 0.00 0.05 0.05 99 1012.3
20260509122407 68 170 0.0 0.0 0.00 0.05 0.05 99 1012.3
20260509121904 68 176 0.0 0.0 0.00 0.05 0.05 99 1012.3
20260509121401 68 179 0.0 0.0 0.00 0.05 0.05 99 1012.0
20260509120859 68 175 0.0 0.0 0.00 0.05 0.05 99 1012.0
20260509120356 68 171 0.9 0.9 0.00 0.05 0.05 99 1012.1
20260509115854 68 213 0.9 0.9 0.00 0.05 0.05 99 1012.1
20260509115351 68 177 0.0 0.0 0.00 0.05 0.05 99 1011.8
20260509114849 68 179 0.0 0.0 0.00 0.05 0.05 99 1011.9
20260509114347 68 179 0.0 0.0 0.00 0.05 0.05 99 1012.0
20260509113846 68 163 0.0 0.0 0.00 0.05 0.05 99 1012.1
20260509113343 69 169 0.0 0.0 0.00 0.05 0.05 99 1012.2
20260509112840 69 168 0.0 0.0 0.00 0.05 0.05 99 1012.2
20260509112337 69 176 0.0 0.0 0.00 0.05 0.05 99 1012.4
20260509111834 69 178 0.0 0.0 0.00 0.05 0.05 99 1012.8
20260509111331 69 175 0.0 0.0 0.07 0.05 0.05 99 1012.8
20260509110829 70 185 0.0 0.0 0.07 0.05 0.05 98 1013.0
20260509110324 70 183 0.0 0.0 0.07 0.05 0.05 98 1013.3
20260509105823 70 169 0.0 0.0 0.12 0.04 0.04 97 1013.4
20260509105321 70 177 0.0 0.0 0.24 0.04 0.04 97 1013.7
20260509104817 71 179 0.9 0.9 0.17 0.03 0.03 97 1013.6
20260509104314 71 177 0.0 0.0 0.00 0.00 0.00 97 1013.9
20260509103812 71 197 0.0 0.9 0.00 0.00 0.00 97 1013.9
20260509103309 71 200 0.9 0.9 0.00 0.00 0.00 97 1013.8
20260509102807 71 179 0.0 0.0 0.00 0.00 0.00 97 1013.6
20260509102306 71 180 0.0 0.0 0.00 0.00 0.00 97 1013.6
20260509101800 71 177 0.9 0.9 0.00 0.00 0.00 97 1013.6
20260509101256 71 169 0.0 0.0 0.00 0.00 0.00 97 1013.6
20260509100754 71 199 0.0 0.9 0.00 0.00 0.00 97 1013.5
20260509100251 71 164 0.0 0.0 0.00 0.00 0.00 97 1013.3
20260509095747 71 154 0.0 0.0 0.00 0.00 0.00 97 1013.3
20260509095245 70 158 0.0 0.0 0.00 0.00 0.00 97 1013.0
20260509094742 70 170 0.0 0.0 0.00 0.00 0.00 97 1012.6
20260509094239 70 170 0.0 0.0 0.00 0.00 0.00 98 1012.5
20260509093737 70 167 0.0 0.0 0.00 0.00 0.00 98 1012.4
20260509093234 70 130 0.9 0.9 0.00 0.00 0.00 98 1012.5
20260509092732 70 162 0.0 0.0 0.00 0.00 0.00 98 1012.0
20260509092230 70 140 0.0 0.0 0.00 0.00 0.00 98 1011.8
20260509091728 70 179 0.0 0.9 0.00 0.00 0.00 98 1011.5
20260509091223 70 148 0.9 0.9 0.00 0.00 0.00 98 1011.5
20260509090721 70 148 0.0 0.9 0.00 0.00 0.00 98 1011.4
20260509090218 70 159 0.0 0.0 0.00 0.00 0.00 98 1011.5
20260509085716 70 154 0.0 0.0 0.00 0.00 0.00 98 1011.7
20260509085213 70 180 0.0 0.0 0.00 0.00 0.00 98 1011.7
20260509084709 70 183 0.0 0.0 0.00 0.00 0.00 98 1011.7
20260509084206 70 178 0.0 0.0 0.00 0.00 0.00 98 1011.7
20260509083704 70 164 0.0 0.0 0.00 0.00 0.00 98 1011.7
20260509083200 70 164 0.0 0.0 0.00 0.00 0.00 98 1011.8
20260509082657 70 164 0.0 0.0 0.00 0.00 0.00 98 1012.0
20260509082154 70 164 0.0 0.0 0.00 0.00 0.00 98 1012.1
20260509081651 70 164 0.0 0.0 0.00 0.00 0.00 98 1011.9
20260509081148 70 164 0.0 0.0 0.00 0.00 0.00 98 1012.2
20260509080646 70 164 0.0 0.0 0.00 0.00 0.00 98 1012.2
20260509080144 70 163 0.0 0.0 0.00 0.00 0.00 98 1012.2
20260509075642 70 163 0.0 0.0 0.00 0.00 0.00 98 1012.3
20260509075139 70 162 0.0 0.0 0.00 0.00 0.00 98 1012.4
20260509074636 70 152 0.0 0.9 0.00 0.00 0.00 98 1012.2
20260509074132 70 158 0.0 0.9 0.00 0.00 0.00 98 1012.2
20260509073629 70 169 0.0 0.0 0.00 0.00 0.00 98 1012.3
20260509073125 70 169 0.0 0.0 0.00 0.00 0.00 98 1012.5
20260509072622 70 169 0.0 0.0 0.00 0.00 0.00 98 1012.2
20260509072119 70 169 0.0 0.0 0.00 0.00 0.00 98 1012.3
20260509071616 70 169 0.0 0.0 0.00 0.00 0.00 98 1012.4
20260509071113 70 169 0.0 0.0 0.00 0.00 0.00 98 1012.6
20260509070610 70 169 0.0 0.0 0.00 0.00 0.00 98 1012.6
20260509070106 70 169 0.0 0.0 0.00 0.00 0.00 98 1012.6
20260509065602 70 169 0.0 0.0 0.00 0.00 0.00 98 1012.4
20260509065058 70 169 0.0 0.0 0.00 0.00 0.00 98 1012.5
20260509064556 70 169 0.0 0.0 0.00 0.00 0.00 98 1012.3
20260509064054 70 169 0.0 0.0 0.00 0.00 0.00 98 1012.5
20260509063549 70 169 0.0 0.0 0.00 0.00 0.00 98 1012.6
20260509063047 70 169 0.9 0.9 0.00 0.00 0.00 98 1012.4
20260509062544 70 169 0.0 0.0 0.00 0.00 0.00 98 1012.6
20260509062042 70 168 0.0 0.0 0.00 0.00 0.00 98 1012.6
20260509061538 70 168 0.0 0.0 0.00 0.00 0.00 98 1012.6
20260509061035 70 168 0.0 0.0 0.00 0.00 0.00 98 1013.0
20260509060533 70 168 0.0 0.0 0.00 0.00 0.00 98 1013.0
20260509060028 70 167 0.0 0.0 0.00 0.00 0.00 98 1012.8
20260509055524 70 168 0.0 0.0 0.00 0.00 0.00 98 1012.3
20260509055020 70 166 0.0 0.0 0.00 0.00 0.00 98 1012.3
20260509054517 70 178 0.0 0.0 0.00 0.00 0.00 98 1012.3
20260509054015 70 178 0.0 0.0 0.00 0.00 0.00 98 1012.3
20260509053513 70 183 0.0 0.0 0.00 0.00 0.00 98 1012.1
20260509053010 69 182 0.0 0.0 0.00 0.00 0.00 98 1012.1
20260509052508 69 182 0.0 0.0 0.00 0.00 0.00 98 1012.1
20260509052006 69 182 0.0 0.0 0.00 0.00 0.00 98 1012.1
20260509051503 69 183 0.0 0.0 0.00 0.00 0.00 98 1011.9
20260509051000 69 190 0.0 0.9 0.00 0.00 0.00 98 1011.5
20260509050456 69 181 0.0 0.0 0.00 0.00 0.00 98 1011.3
20260509045953 69 172 0.0 0.0 0.00 0.00 0.00 97 1010.8
20260509045450 69 172 0.0 0.0 0.00 0.00 0.00 97 1010.6
20260509044947 69 182 0.0 0.9 0.00 0.00 0.00 97 1010.5
20260509044445 69 167 0.0 0.0 0.00 0.00 0.00 97 1010.6
20260509043942 70 162 0.0 0.0 0.00 0.00 0.00 97 1010.6
20260509043438 70 164 0.0 0.0 0.00 0.00 0.00 98 1010.7
20260509042933 70 169 0.0 0.0 0.00 0.00 0.00 98 1010.8
20260509042431 70 176 0.0 0.0 0.00 0.00 0.00 98 1010.9
20260509041927 69 173 0.0 0.0 0.00 0.00 0.00 98 1010.9
20260509041424 69 160 0.0 0.0 0.00 0.00 0.00 98 1011.2
20260509040922 69 161 0.0 0.0 0.00 0.00 0.00 98 1011.0
20260509040420 69 162 0.0 0.0 0.00 0.00 0.00 98 1011.3
20260509035916 69 162 0.0 0.0 0.00 0.00 0.00 97 1011.3
20260509035413 69 162 0.0 0.0 0.00 0.00 0.00 97 1011.3
20260509034909 69 162 0.0 0.0 0.00 0.00 0.00 97 1011.4
20260509034408 69 162 0.0 0.0 0.00 0.00 0.00 97 1011.4
20260509033904 69 162 0.0 0.0 0.00 0.00 0.00 97 1011.3
20260509033401 69 162 0.0 0.0 0.00 0.00 0.00 97 1011.3
20260509032858 69 162 0.0 0.0 0.00 0.00 0.00 96 1011.2
20260509032355 69 162 0.0 0.0 0.00 0.00 0.00 96 1011.1
20260509031853 69 162 0.0 0.0 0.00 0.00 0.00 96 1010.9
20260509031350 70 162 0.0 0.0 0.00 0.00 0.00 96 1010.9
20260509030847 70 162 0.0 0.0 0.00 0.00 0.00 96 1010.9
20260509030346 70 162 0.0 0.0 0.00 0.00 0.00 95 1010.7
20260509025842 70 162 0.0 0.0 0.00 0.00 0.00 95 1010.7
20260509025337 70 162 0.0 0.0 0.00 0.00 0.00 95 1010.6
20260509024833 70 162 0.0 0.0 0.00 0.00 0.00 95 1010.6
20260509024330 70 162 0.0 0.0 0.00 0.00 0.00 94 1010.6
20260509023827 71 162 0.0 0.0 0.00 0.00 0.00 94 1010.6
20260509023324 71 162 0.0 0.0 0.00 0.00 0.00 94 1010.6
20260509022821 71 162 0.0 0.0 0.00 0.00 0.00 94 1010.5
20260509022318 71 162 0.0 0.0 0.00 0.00 0.00 93 1010.5
20260509021814 71 162 0.0 0.0 0.00 0.00 0.00 93 1010.6
20260509021312 71 162 0.0 0.0 0.00 0.00 0.00 93 1010.5
20260509020809 72 162 0.0 0.0 0.00 0.00 0.00 92 1010.5
20260509020307 72 162 0.0 0.0 0.00 0.00 0.00 92 1010.4
20260509015805 72 162 0.0 0.0 0.00 0.00 0.00 92 1010.5
20260509015306 72 162 0.0 0.0 0.00 0.00 0.00 91 1010.4
20260509014759 73 162 0.0 0.0 0.00 0.00 0.00 91 1010.3
20260509014256 73 162 0.0 0.0 0.00 0.00 0.00 90 1010.3
20260509013752 73 165 0.0 0.0 0.00 0.00 0.00 89 1010.3
20260509013248 74 173 0.0 0.0 0.00 0.00 0.00 88 1010.2
20260509012745 74 174 0.0 0.0 0.00 0.00 0.00 87 1010.1
20260509012242 75 172 0.0 0.0 0.00 0.00 0.00 87 1010.0